STARLINK-35957, 66823

Orbit data source: Space-Track

STARLINK-35957, 66823 is a payload satellite owned by SpaceX/Seattle (US) in LEO that was launched on Tue, 02 Dec 2025 UTC via an FALCON 9 launch vehicle from the Air Force Western Test Range (AFWTR). Payload-class satellites include a variety of spacecraft equipped with specific instruments for various scientific and technological missions. These include communications satellites like Starlink; space stations such as the ISS; scientific satellites like the Hubble; Earth observation satellites from companies like Planet Labs, Umbra, and HawkEye 360; GPS; miniature CubeSats for education and research; and military/defense satellites.

Loading next visibility...
Identifier
66823, 2025-280C
Orbit
LEO
Country
Flag of USUS
Related business
Manufacturer
SpaceX/Seattle
Mission
Operational Commercial Communications
Bus & Motor
STARLINK V2MO, Unknown motor
Mass
575 kg wet, ~530 kg dry
Launch date (UTC)
2025-12-02 (7 months ago)
Launch vehicle
FALCON 9
Launch site
Air Force Western Test Range (AFWTR)
Object type
Payload
Rocket body
Debris
Shape & HBR
Box + 2 Pan, 17.7 m
Radar Cross Section
36.964 m², Large (>1 m²)

Expand to show TLE details & history
Last TLE update: 22 hours ago

TLE from 22 hours ago
0 STARLINK-35957
1 66823U 25280C   26170.93227344  .00001186  00000-0  10715-3 0  9995
2 66823  70.0017  76.5571 0002837 266.2819  93.8015 14.98338736 31391
Epoch: 2026-06-19T22:22Z
TLE epoch observation values (Epoch: 2026-06-19T22:22:28.425Z)
Latitude
-0.00008°
Longitude
-167.21552°
Altitude
574.584 km
Speed
7.574 km/s
True Right ascension
05h 06m 13s
True Declination
0° 00' 00"
Sunlit
Object was in daylight at epoch
Visualization orbit readout
Latitude
Unknown
Longitude
Unknown
Altitude
Unknown
Speed
Unknown
Apparent Right ascension
Unknown
Apparent Declination
Unknown
Sunlit
N/A
Visualization observer readout
Local Sidereal Time
07:15:11
Azimuth
Unknown
Elevation
Unknown
Doppler factor
Unknown
Orbital elements
Apogee altitude
571.948 km
Perigee altitude
568.006 km
Semi-major axis
6,948.114 km
Eccentricity
0.00028
Inclination
70.0017°
RAAN
76.5571°
Arg. of periapsis
266.2819°
True anomaly
93.83394°
Mean anomaly
93.8015°
Eccentric anomaly
93.81772°
Mean motion
3.74751 °/min
Orbital period
96.06 mins
BSTAR
0.00010715
Loading maneuver chart data...
Computing Atmospheric mass density...
Loading historical data...
Loading historical data...
Loading historical data...
Loading historical data...
Loading historical data...
Loading historical data...
Loading historical data...

Documentation

Showing up to 5 results
|